Home   Weather   Prenzlau   Past weeks

Flag for Germany Past Weather in Prenzlau, Brandenburg, Germany — Yesterday and Last 2 Weeks

Now
27 °F

Ice fog.


Feels Like: 27 °F
Forecast: 28 / 36 °F
Wind: 2 mph from Southeast

Location: Szczecin Airport

Current Time: Dec 4, 2016 at 9:24:39 am

Latest Report: Dec 4, 2016 at 9:00 am


Visibility: 2 mi

Pressure: 30.36 "Hg

Humidity: 100%

Dew Point: 27 °F

Location of PrenzlauLocation

Past Weather in Prenzlau — Graph

°F

Prenzlau Temperature Yesterday

Maximum temperature yesterday: 37 °F (at 1:00 pm)
Minimum temperature yesterday: 27 °F (at 6:30 am)
Average temperature yesterday: 31 °F

High & Low Weather Summary for the Past Weeks

 TemperatureHumidityPressure
High52 °F (Nov 21, 2:00 pm)100% (Nov 19, 7:30 pm)30.45 "Hg (Nov 19, 7:30 pm)
Low25 °F (Nov 29, 1:00 am)56% (Nov 27, 7:30 pm)29.53 "Hg (Dec 1, 10:30 pm)
Average38 °F88%30.04 "Hg
* Reported Nov 19 8:00 am — Dec 4 8:00 am, Prenzlau, Weather by CustomWeather, © 2016

Note: Actual official high and low records may vary slightly from our data, if they occured in-between our weather recording intervals... More about our weather records

Advertising

Prenzlau Weather History for the Previous 24 Hours

Scroll right to see more
 ConditionsComfort  
Time TempWeatherWind HumidityBarometerVisibility
8:00 am
Sun, Dec 4
27 °FIce fog.1 mph100%30.33 "Hg1 mi
7:30 am27 °FIce fog.2 mph100%30.33 "Hg1 mi
7:00 am27 °FIce fog.1 mph100%30.33 "Hg1 mi
6:30 am27 °FIce fog.3 mph100%30.33 "Hg1 mi
6:00 am28 °FIce fog.2 mph93%30.33 "Hg2 mi
5:30 am28 °FIce fog.2 mph100%30.33 "Hg2 mi
5:00 am28 °FIce fog.3 mph100%30.33 "Hg2 mi
4:30 am30 °FPassing clouds.2 mph93%30.30 "Hg4 mi
4:00 am30 °FIce fog.3 mph93%30.30 "Hg3 mi
3:30 am30 °FOvercast.3 mph93%30.30 "Hg4 mi
3:00 am30 °FOvercast.2 mph93%30.30 "Hg4 mi
2:30 am30 °FOvercast.2 mph93%30.30 "Hg4 mi
2:00 am28 °FIce fog.3 mph100%30.30 "Hg3 mi
1:30 am28 °FPassing clouds.3 mph100%30.30 "Hg4 mi
1:00 am28 °FOvercast.3 mph100%30.30 "Hg4 mi
12:30 am28 °FIce fog.3 mph100%30.30 "Hg2 mi
12:00 am28 °FIce fog.3 mph100%30.30 "Hg1 mi
11:30 pm
Sat, Dec 3
28 °FIce fog.2 mph100%30.27 "Hg2 mi
11:00 pm28 °FIce fog.2 mph93%30.27 "Hg2 mi
10:30 pm30 °FIce fog.5 mph93%30.27 "Hg3 mi
10:00 pm28 °FClear.2 mph93%30.27 "Hg5 mi
9:30 pm28 °FClear.2 mph93%30.27 "Hg10 mi
9:00 pm28 °FClear.2 mph93%30.27 "Hg10 mi
8:30 pm30 °FClear.2 mph86%30.27 "Hg10 mi
8:00 pm30 °FClear.6 mph86%30.27 "Hg10 mi
7:30 pm30 °FClear.6 mph93%30.27 "Hg10 mi
7:00 pm30 °FClear.3 mph93%30.27 "Hg10 mi
6:30 pm32 °FClear.5 mph87%30.27 "Hg10 mi
6:00 pm32 °FClear.5 mph87%30.27 "Hg10 mi
5:30 pm32 °FClear.5 mph87%30.27 "Hg10 mi
5:00 pm32 °FClear.5 mph87%30.27 "Hg10 mi
4:30 pm34 °FClear.5 mph81%30.27 "Hg10 mi
4:00 pm34 °FClear.6 mph81%30.27 "Hg10 mi
3:30 pm36 °FSunny.7 mph75%30.24 "Hg10 mi
3:00 pm36 °FSunny.8 mph75%30.24 "Hg10 mi
2:30 pm37 °FSunny.10 mph70%30.24 "Hg10 mi
2:00 pm37 °FSunny.12 mph75%30.24 "Hg10 mi
1:30 pm37 °FSunny.12 mph75%30.24 "Hg10 mi
1:00 pm37 °FSunny.9 mph75%30.24 "Hg10 mi
12:30 pm36 °FSunny.9 mph75%30.24 "Hg10 mi
12:00 pm36 °FSunny.8 mph81%30.24 "Hg10 mi
11:30 am34 °FSunny.6 mph87%30.24 "Hg10 mi
11:00 am32 °FPassing clouds.7 mph93%30.24 "HgN/A
10:30 am32 °FPassing clouds.6 mph87%30.24 "HgN/A
10:00 am30 °FSunny.6 mph93%30.24 "Hg10 mi
9:30 am28 °FSunny.5 mph100%30.24 "Hg10 mi
9:00 am27 °FSunny.5 mph100%30.21 "Hg10 mi
Weather by CustomWeather, © 2016

See weather overviewHow to use our weather pages